Location: Zagreb
(45.8000°N, 16.0000°E)
Time: 17:30:34
(UTC+01:00)

Tiros 1 despin weight - Pass Details

Date: 02 February 2020
Orbit: 594 x 642 km, 48.2° (Epoch: 25 February)

Event Time Altitude Azimuth Distance (km) Brightness Sun altitude
Rises 09:28:10 0° 253° (WSW) 2,836 ? 17.4°
Reaches altitude 10° 09:30:27 10° 254° (WSW) 1,941 ? 17.7°
Maximum altitude 09:34:55 86° 342° (NNW) 614 ? 18.2°
Drops below altitude 10° 09:39:27 10° 73° (ENE) 1,974 ? 18.7°
Sets 09:41:47 0° 74° (ENE) 2,889 ? 18.9°
